Location: Pallagorio
(39.3000°N, 16.9000°E)
Time: 21:54:47
(UTC+00:00)

SAR-Lupe-1 - Pass Details

Date: 24 January 2021
Orbit: 482 x 484 km, 98.2° (Epoch: 02 March)

Event Time Altitude Azimuth Distance (km) Brightness Sun altitude
Exits shadow 17:02:08 - 27° (NNE) 1,831 6.6 -11.5°
Reaches altitude 10° 17:02:33 10° 30° (NNE) 1,668 6.4 -11.5°
Maximum altitude 17:05:54 38° 99° (E) 758 4.6 -12.2°
Drops below altitude 10° 17:09:14 10° 169° (SSE) 1,655 6.8 -12.8°
Sets 17:11:23 0° 177° (S) 2,530 7.9 -13.2°
